{"data":{"norad_id":66236,"intl_designator":"2025-245C","name":"STARLINK-35454","alt_names":[],"object_type":"PAYLOAD","status":"ACTIVE","operator":null,"country":"US","launch_date":"2025-10-29","launch_site_code":"AFETR","launch_vehicle":null,"mission":null,"orbit_class":"UNKNOWN","rcs_meters":null,"size_class":null,"mass_kg":null,"dimensions":null,"purposes":["comms"],"wikipedia_slug":null,"has_3d_model":false,"image_url":null,"decayed_at":null,"tle_current":{"epoch":"2026-09-20T15:02:17.819232Z","epoch_age_seconds":85752,"freshness":"FRESH","line1":"1 66236U 25245C   26263.62659513  .00013928  00000+0  42292-3 0  9991","line2":"2 66236  53.1577  96.9187 0000924  79.6188 280.4919 15.34375005 50963","mean_motion":15.34375005,"eccentricity":9.24e-5,"inclination_deg":53.1577,"raan_deg":96.9187,"arg_perigee_deg":79.6188,"mean_anomaly_deg":280.4919,"bstar":0.00042292,"rev_number":5096,"period_min":93.84928686322,"perigee_km":462.14543112033,"apogee_km":463.40963212578,"semimajor_km":6840.9145316231,"source":"CELESTRAK","updated_at":"2026-09-21T09:00:35.845909Z"}}}